Weather History for KW29 - August, 2013

Change the Weather History Date:

Saturday, August 24, 2013

  Actual Average (KESN) Record (KESN)
Temperature  
Mean Temperature 72 °F -  
Max Temperature 80 °F 86 °F 97 °F (1968)
Min Temperature 64 °F 63 °F 49 °F (1957)
Cooling Degree Days 7    
Growing Degree Days 22 (Base 50)    
Moisture  
Dew Point 59 °F    
Average Humidity 65    
Maximum Humidity 83    
Minimum Humidity 39    
Precipitation  
Precipitation 0.00 in - - ()
Sea Level Pressure  
Sea Level Pressure 30.24 in    
Wind  
Wind Speed 5 mph (NNE)    
Max Wind Speed 10 mph    
Max Gust Speed 16 mph    
Visibility 10 miles    
Events      
Averages and records for this station are not official NWS values.
T = Trace of Precipitation, MM = Missing Value Source: NWS Daily Summary

Daily Weather History Graph

Daily Weather History Graph

Search for Another Location

Airport or City:

Trip Planner

Search our weather history database for the weather conditions in past years. The results will help you decide how hot, cold, wet, or windy it might be!

Date:

Astronomy

Aug. 24, 2013 Rise Set
Actual Time 6:27 AM EDT 7:47 PM EDT
Civil Twilight 5:59 AM EDT 8:15 PM EDT
Nautical Twilight 5:25 AM EDT 8:48 PM EDT
Astronomical Twilight 4:50 AM EDT 9:23 PM EDT
Moon 9:43 PM EDT (8/24) 10:21 AM EDT (8/24)
Length of Visible Light 14h 15m
Length of Day
13h 20m
Waning Gibbous, 84% of the Moon is Illuminated
Aug 24
Waning Gibbous
Aug 28
Last Quarter
Sep 5
New
Sep 12
First Quarter
Sep 19
Full

Hourly Weather History & Observations

Time (EDT) Temp. Heat Index Dew Point Humidity Pressure Visibility Wind Dir Wind Speed Gust Speed Precip Events Conditions
12:16 AM 69.8 °F - 62.6 °F 78% 30.11 in 10.0 mi WNW 5.8 mph - N/A   Clear
12:36 AM 68.0 °F - 62.6 °F 83% 30.12 in 10.0 mi WNW 5.8 mph - N/A   Clear
12:56 AM 69.8 °F - 62.6 °F 78% 30.12 in 10.0 mi NW 4.6 mph - N/A   Clear
1:16 AM 69.8 °F - 62.6 °F 78% 30.12 in 10.0 mi NNW 4.6 mph - N/A   Clear
1:36 AM 69.8 °F - 64.4 °F 83% 30.11 in 10.0 mi NW 4.6 mph - N/A   Clear
1:56 AM 69.8 °F - 62.6 °F 78% 30.11 in 10.0 mi NNW 6.9 mph - N/A   Clear
2:16 AM 69.8 °F - 60.8 °F 73% 30.12 in 10.0 mi North 4.6 mph - N/A   Clear
2:36 AM 69.8 °F - 60.8 °F 73% 30.13 in 10.0 mi North 3.5 mph - N/A   Clear
2:56 AM 69.8 °F - 59.0 °F 68% 30.13 in 10.0 mi Calm Calm - N/A   Clear
3:17 AM 68.0 °F - 59.0 °F 73% 30.14 in 10.0 mi North 3.5 mph - N/A   Clear
3:37 AM 68.0 °F - 59.0 °F 73% 30.14 in 10.0 mi North 4.6 mph - N/A   Clear
3:57 AM 68.0 °F - 59.0 °F 73% 30.15 in 10.0 mi North 3.5 mph - N/A   Clear
4:17 AM 66.2 °F - 60.8 °F 83% 30.15 in 10.0 mi North 4.6 mph - N/A   Clear
4:37 AM 66.2 °F - 60.8 °F 83% 30.16 in 10.0 mi NNE 4.6 mph - N/A   Clear
4:57 AM 66.2 °F - 59.0 °F 78% 30.16 in 10.0 mi NNE 5.8 mph - N/A   Clear
5:17 AM 66.2 °F - 59.0 °F 78% 30.17 in 10.0 mi North 4.6 mph - N/A   Clear
5:37 AM 64.4 °F - 59.0 °F 83% 30.17 in 10.0 mi NNE 5.8 mph - N/A   Clear
5:57 AM 64.4 °F - 59.0 °F 83% 30.18 in 10.0 mi Calm Calm - N/A   Clear
6:17 AM 64.4 °F - 59.0 °F 83% 30.19 in 10.0 mi NNW 3.5 mph - N/A   Clear
6:37 AM 66.2 °F - 57.2 °F 73% 30.20 in 10.0 mi Calm Calm - N/A   Clear
6:57 AM 66.2 °F - 57.2 °F 73% 30.21 in 10.0 mi Calm Calm - N/A   Clear
7:17 AM 66.2 °F - 57.2 °F 73% 30.21 in 10.0 mi North 3.5 mph - N/A   Clear
7:37 AM 68.0 °F - 57.2 °F 68% 30.22 in 10.0 mi North 4.6 mph - N/A   Clear
7:57 AM 68.0 °F - 57.2 °F 68% 30.23 in 10.0 mi North 4.6 mph - N/A   Clear
8:17 AM 69.8 °F - 57.2 °F 64% 30.23 in 10.0 mi NNE 3.5 mph - N/A   Clear
8:37 AM 69.8 °F - 57.2 °F 64% 30.24 in 10.0 mi NNE 4.6 mph - N/A   Clear
8:57 AM 69.8 °F - 59.0 °F 68% 30.25 in 10.0 mi NNE 5.8 mph - N/A   Clear
9:17 AM 69.8 °F - 59.0 °F 68% 30.25 in 10.0 mi NNE 6.9 mph - N/A   Clear
9:37 AM 71.6 °F - 59.0 °F 64% 30.25 in 10.0 mi NE 6.9 mph - N/A   Clear
9:57 AM 71.6 °F - 59.0 °F 64% 30.26 in 10.0 mi NNE 8.1 mph - N/A   Clear
10:17 AM 71.6 °F - 60.8 °F 69% 30.26 in 10.0 mi North 6.9 mph - N/A   Clear
10:37 AM 73.4 °F - 60.8 °F 65% 30.27 in 10.0 mi NE 4.6 mph - N/A   Clear
10:57 AM 73.4 °F - 60.8 °F 65% 30.27 in 10.0 mi Calm Calm - N/A   Clear
11:17 AM 73.4 °F - 60.8 °F 65% 30.27 in 10.0 mi NNE 8.1 mph - N/A   Clear
11:37 AM 75.2 °F - 60.8 °F 61% 30.27 in 10.0 mi North 6.9 mph - N/A   Clear
11:58 AM 75.2 °F - 60.8 °F 61% 30.27 in 10.0 mi NNW 8.1 mph - N/A   Clear
12:18 PM 77.0 °F - 62.6 °F 61% 30.27 in 10.0 mi North 5.8 mph - N/A   Scattered Clouds
12:38 PM 77.0 °F - 62.6 °F 61% 30.27 in 10.0 mi North 6.9 mph - N/A   Scattered Clouds
12:58 PM 77.0 °F - 62.6 °F 61% 30.27 in 10.0 mi NNW 9.2 mph - N/A   Scattered Clouds
1:18 PM 77.0 °F - 62.6 °F 61% 30.27 in 10.0 mi NNW 10.4 mph - N/A   Scattered Clouds
1:38 PM 77.0 °F - 62.6 °F 61% 30.27 in 10.0 mi NNW 10.4 mph - N/A   Scattered Clouds
1:58 PM 77.0 °F - 62.6 °F 61% 30.27 in 10.0 mi NNW 6.9 mph - N/A   Clear
2:18 PM 77.0 °F - 62.6 °F 61% 30.27 in 10.0 mi North 8.1 mph - N/A   Clear
2:38 PM 77.0 °F - 62.6 °F 61% 30.27 in 10.0 mi NNW 8.1 mph - N/A   Clear
2:58 PM 77.0 °F - 62.6 °F 61% 30.27 in 10.0 mi NNW 8.1 mph 16.1 mph N/A   Clear
3:18 PM 78.8 °F - 62.6 °F 57% 30.26 in 10.0 mi NNW 8.1 mph - N/A   Clear
3:38 PM 78.8 °F - 62.6 °F 57% 30.27 in 10.0 mi North 10.4 mph - N/A   Clear
3:58 PM 78.8 °F - 62.6 °F 57% 30.27 in 10.0 mi NNW 9.2 mph - N/A   Clear
4:18 PM 78.8 °F - 60.8 °F 54% 30.27 in 10.0 mi NNW 9.2 mph - N/A   Clear
4:38 PM 78.8 °F - 59.0 °F 51% 30.27 in 10.0 mi NNE 6.9 mph - N/A   Clear
4:58 PM 80.6 °F 80.8 °F 57.2 °F 45% 30.27 in 10.0 mi North 4.6 mph - N/A   Clear
5:18 PM 80.6 °F 80.3 °F 53.6 °F 39% 30.27 in 10.0 mi North 3.5 mph - N/A   Clear
5:38 PM 80.6 °F 80.3 °F 53.6 °F 39% 30.27 in 10.0 mi ENE 4.6 mph - N/A   Clear
5:58 PM 78.8 °F - 53.6 °F 42% 30.27 in 10.0 mi NNE 5.8 mph - N/A   Clear
6:18 PM 78.8 °F - 53.6 °F 42% 30.27 in 10.0 mi ENE 5.8 mph - N/A   Clear
6:38 PM 78.8 °F - 53.6 °F 42% 30.27 in 10.0 mi NE 3.5 mph - N/A   Clear
6:58 PM 77.0 °F - 51.8 °F 41% 30.27 in 10.0 mi ENE 5.8 mph - N/A   Clear
7:18 PM 77.0 °F - 57.2 °F 50% 30.28 in 10.0 mi ESE 9.2 mph - N/A   Clear
7:38 PM 75.2 °F - 60.8 °F 61% 30.28 in 10.0 mi ESE 8.1 mph - N/A   Clear
7:58 PM 73.4 °F - 60.8 °F 65% 30.29 in 10.0 mi East 8.1 mph - N/A   Clear
8:18 PM 73.4 °F - 60.8 °F 65% 30.30 in 10.0 mi ESE 9.2 mph - N/A   Clear
8:38 PM 71.6 °F - 59.0 °F 64% 30.31 in 10.0 mi ESE 8.1 mph - N/A   Clear
8:58 PM 71.6 °F - 59.0 °F 64% 30.32 in 10.0 mi ESE 6.9 mph - N/A   Clear
9:19 PM 71.6 °F - 53.6 °F 53% 30.33 in 10.0 mi ESE 6.9 mph - N/A   Clear
9:39 PM 69.8 °F - 51.8 °F 53% 30.33 in 10.0 mi ESE 6.9 mph - N/A   Clear
9:59 PM 69.8 °F - 51.8 °F 53% 30.34 in 10.0 mi ESE 5.8 mph - N/A   Clear
10:19 PM 69.8 °F - 53.6 °F 56% 30.34 in 10.0 mi ESE 4.6 mph - N/A   Clear
10:39 PM 69.8 °F - 55.4 °F 60% 30.33 in 10.0 mi ESE 3.5 mph - N/A   Clear
10:59 PM 68.0 °F - 57.2 °F 68% 30.34 in 10.0 mi ESE 3.5 mph - N/A   Clear
11:19 PM 68.0 °F - 59.0 °F 73% 30.34 in 10.0 mi ESE 4.6 mph - N/A   Clear
11:39 PM 68.0 °F - 60.8 °F 78% 30.35 in 10.0 mi ESE 3.5 mph - N/A   Clear
11:59 PM 68.0 °F - 60.8 °F 78% 30.35 in 10.0 mi SE 3.5 mph - N/A   Clear